Weather History for Fort Payne, AL

Change the Weather History Date:

Tuesday, May 13, 2014

  Actual Average (KRMG) Record (KRMG)
Temperature  
Mean Temperature 72 °F 67 °F  
Max Temperature 86 °F 80 °F 90 °F (2005)
Min Temperature 59 °F 55 °F 39 °F (2013)
Cooling Degree Days 8 3  
Month to date cooling degree days 32  
Year to date cooling degree days 65  
Growing Degree Days 22 (Base 50)    
Moisture  
Dew Point 59 °F    
Average Humidity 68    
Maximum Humidity 94    
Minimum Humidity 37    
Precipitation  
Precipitation 0.00 in 0.15 in 0.59 in (2012)
Month to date precipitation 1.87  
Year to date precipitation 20.56  
Sea Level Pressure  
Sea Level Pressure 30.11 in    
Wind  
Wind Speed 2 mph (SSW)    
Max Wind Speed 12 mph    
Max Gust Speed 18 mph    
Visibility 9 miles    
Events      
T = Trace of Precipitation, MM = Missing Value Source: NWS Daily Summary

Daily Weather History Graph

Daily Weather History Graph

Search for Another Location

Airport:

Trip Planner

Search our weather history database for the weather conditions in past years. The results will help you decide how hot, cold, wet, or windy it might be!

Date:

Astronomy

May. 13, 2014 Rise Set
Actual Time 5:41 AM CDT 7:36 PM CDT
Civil Twilight 5:14 AM CDT 8:04 PM CDT
Nautical Twilight 4:40 AM CDT 8:38 PM CDT
Astronomical Twilight 4:04 AM CDT 9:14 PM CDT
Moon 6:40 PM CDT (5/13) 4:53 AM CDT (5/13)
Length of Visible Light 14h 50m
Length of Day
13h 54m
Waxing Gibbous, 99% of the Moon is Illuminated
May 13
Waxing Gibbous
May 14
Full
May 21
Last Quarter
May 28
New
Jun 5
First Quarter

Hourly Weather History & Observations

Time (CDT) Temp. Heat Index Dew Point Humidity Pressure Visibility Wind Dir Wind Speed Gust Speed Precip Events Conditions
12:15 AM 62.6 °F - 59.0 °F 88% 30.12 in 10.0 mi Calm Calm - N/A   Clear
12:35 AM 62.6 °F - 59.0 °F 88% 30.11 in 7.0 mi Calm Calm - N/A   Clear
12:55 AM 62.6 °F - 59.0 °F 88% 30.11 in 10.0 mi Calm Calm - N/A   Clear
1:15 AM 62.6 °F - 59.0 °F 88% 30.12 in 10.0 mi Calm Calm - N/A   Clear
1:35 AM 62.6 °F - 59.0 °F 88% 30.11 in 10.0 mi Calm Calm - N/A   Clear
1:55 AM 62.6 °F - 59.0 °F 88% 30.11 in 10.0 mi Calm Calm - N/A   Clear
2:15 AM 60.8 °F - 59.0 °F 94% 30.11 in 7.0 mi Calm Calm - N/A   Clear
2:35 AM 60.8 °F - 59.0 °F 94% 30.11 in 7.0 mi Calm Calm - N/A   Clear
2:55 AM 60.8 °F - 59.0 °F 94% 30.11 in 7.0 mi Calm Calm - N/A   Clear
3:15 AM 60.8 °F - 59.0 °F 94% 30.11 in 7.0 mi North 3.5 mph - N/A   Clear
3:35 AM 60.8 °F - 59.0 °F 94% 30.11 in 7.0 mi Calm Calm - N/A   Clear
3:55 AM 60.8 °F - 57.2 °F 88% 30.11 in 7.0 mi Calm Calm - N/A   Clear
4:15 AM 60.8 °F - 57.2 °F 88% 30.11 in 7.0 mi Calm Calm - N/A   Clear
4:35 AM 60.8 °F - 59.0 °F 94% 30.11 in 5.0 mi Calm Calm - N/A   Clear
4:55 AM 60.8 °F - 57.2 °F 88% 30.11 in 7.0 mi Calm Calm - N/A   Clear
5:15 AM 59.0 °F - 55.4 °F 88% 30.11 in 7.0 mi Calm Calm - N/A   Clear
5:35 AM 60.8 °F - 57.2 °F 88% 30.12 in 7.0 mi Calm Calm - N/A   Clear
5:55 AM 59.0 °F - 57.2 °F 94% 30.12 in 5.0 mi Calm Calm - N/A   Clear
6:15 AM 60.8 °F - 57.2 °F 88% 30.13 in 7.0 mi Calm Calm - N/A   Clear
6:35 AM 60.8 °F - 59.0 °F 94% 30.13 in 5.0 mi Calm Calm - N/A   Clear
6:55 AM 62.6 °F - 59.0 °F 88% 30.13 in 10.0 mi Calm Calm - N/A   Clear
8:15 AM 71.6 °F - 62.6 °F 73% 30.14 in 10.0 mi Calm Calm - N/A   Clear
8:35 AM 75.2 °F - 62.6 °F 65% 30.14 in 10.0 mi SSW 4.6 mph - N/A   Clear
8:55 AM 77.0 °F - 60.8 °F 57% 30.15 in 10.0 mi South 4.6 mph - N/A   Clear
9:15 AM 77.0 °F - 60.8 °F 57% 30.15 in 10.0 mi SW 5.8 mph - N/A   Clear
10:55 AM 78.8 °F - 60.8 °F 54% 30.16 in 10.0 mi SW 9.2 mph - N/A   Clear
11:35 AM 80.6 °F 81.1 °F 59.0 °F 48% 30.16 in 10.0 mi SW 11.5 mph 18.4 mph N/A   Clear
12:15 PM 80.6 °F 81.1 °F 59.0 °F 48% 30.15 in 10.0 mi SW 6.9 mph 18.4 mph N/A   Scattered Clouds
12:35 PM 82.4 °F 82.5 °F 59.0 °F 45% 30.15 in 10.0 mi SSW 8.1 mph - N/A   Scattered Clouds
12:55 PM 82.4 °F 82.5 °F 59.0 °F 45% 30.14 in 10.0 mi SSW 10.4 mph - N/A   Scattered Clouds
1:15 PM 82.4 °F 82.5 °F 59.0 °F 45% 30.13 in 10.0 mi SW 11.5 mph - N/A   Scattered Clouds
1:35 PM 84.2 °F 83.5 °F 57.2 °F 40% 30.12 in 10.0 mi WSW 8.1 mph - N/A   Scattered Clouds
1:55 PM 82.4 °F 81.7 °F 55.4 °F 39% 30.12 in 10.0 mi SW 6.9 mph - N/A   Scattered Clouds
2:15 PM 84.2 °F 83.0 °F 55.4 °F 37% 30.11 in 10.0 mi South 5.8 mph 10.4 mph N/A   Scattered Clouds
2:35 PM 82.4 °F 81.7 °F 55.4 °F 39% 30.10 in 10.0 mi WSW 6.9 mph - N/A   Scattered Clouds
2:55 PM 84.2 °F 83.5 °F 57.2 °F 40% 30.09 in 10.0 mi SW 6.9 mph - N/A   Scattered Clouds
3:15 PM 82.4 °F 81.7 °F 55.4 °F 39% 30.09 in 10.0 mi SW 9.2 mph - N/A   Mostly Cloudy
3:35 PM 86.0 °F 84.9 °F 57.2 °F 37% 30.08 in 10.0 mi SW 10.4 mph 16.1 mph N/A   Mostly Cloudy
3:55 PM 82.4 °F 82.5 °F 59.0 °F 45% 30.08 in 10.0 mi South 4.6 mph - N/A   Scattered Clouds
4:15 PM 82.4 °F 81.7 °F 55.4 °F 39% 30.08 in 10.0 mi SSW 5.8 mph - N/A   Mostly Cloudy
4:35 PM 82.4 °F 82.0 °F 57.2 °F 42% 30.07 in 10.0 mi ESE 5.8 mph - N/A   Mostly Cloudy
4:55 PM 82.4 °F 82.0 °F 57.2 °F 42% 30.06 in 10.0 mi South 4.6 mph - N/A   Scattered Clouds
5:15 PM 82.4 °F 81.7 °F 55.4 °F 39% 30.06 in 10.0 mi South 5.8 mph - N/A   Clear
5:35 PM 82.4 °F 81.7 °F 55.4 °F 39% 30.06 in 10.0 mi SSE 5.8 mph - N/A   Clear
5:55 PM 82.4 °F 81.7 °F 55.4 °F 39% 30.06 in 10.0 mi SSE 5.8 mph - N/A   Clear
6:15 PM 82.4 °F 81.7 °F 55.4 °F 39% 30.06 in 10.0 mi South 4.6 mph - N/A   Clear
6:35 PM 82.4 °F 82.0 °F 57.2 °F 42% 30.06 in 10.0 mi South 3.5 mph - N/A   Clear
7:15 PM 80.6 °F 81.1 °F 59.0 °F 48% 30.06 in 10.0 mi Calm Calm - N/A   Clear
7:35 PM 77.0 °F - 60.8 °F 57% 30.07 in 10.0 mi Calm Calm - N/A   Scattered Clouds
7:55 PM 73.4 °F - 62.6 °F 69% 30.08 in 10.0 mi Calm Calm - N/A   Scattered Clouds
8:15 PM 73.4 °F - 62.6 °F 69% 30.08 in 10.0 mi NE 3.5 mph - N/A   Scattered Clouds
8:35 PM 71.6 °F - 62.6 °F 73% 30.08 in 10.0 mi Calm Calm - N/A   Scattered Clouds
8:55 PM 69.8 °F - 62.6 °F 78% 30.09 in 10.0 mi NNE 3.5 mph - N/A   Mostly Cloudy
9:15 PM 69.8 °F - 62.6 °F 78% 30.10 in 10.0 mi Calm Calm - N/A   Mostly Cloudy
9:35 PM 69.8 °F - 62.6 °F 78% 30.10 in 10.0 mi Calm Calm - N/A   Overcast
9:55 PM 69.8 °F - 62.6 °F 78% 30.10 in 10.0 mi Calm Calm - N/A   Mostly Cloudy
10:15 PM 68.0 °F - 62.6 °F 83% 30.10 in 10.0 mi Calm Calm - N/A   Mostly Cloudy
10:35 PM 68.0 °F - 62.6 °F 83% 30.10 in 10.0 mi Calm Calm - N/A   Scattered Clouds
10:55 PM 68.0 °F - 62.6 °F 83% 30.10 in 10.0 mi Calm Calm - N/A   Scattered Clouds
11:15 PM 68.0 °F - 62.6 °F 83% 30.10 in 10.0 mi Calm Calm - N/A   Clear
11:35 PM 68.0 °F - 62.6 °F 83% 30.10 in 10.0 mi Calm Calm - N/A   Mostly Cloudy
11:55 PM 66.2 °F - 62.6 °F 88% 30.09 in 10.0 mi Calm Calm - N/A   Scattered Clouds